Live-Position
3D-Globus wird geladen...
Über OneWeb SL0409
Group: 3 satellites
Beschreibung wird geladen...
Nächste Überflüge
Passes for default location (London). Set your location on the main map for personalized predictions.
Höhenverlauf
Loading altitude history...
No altitude history available
Zweizeiliger Elementsatz
1 50488U 21132V 26126.74805684 -.00000526 00000-0 -15213-2 0 9992
2 50488 87.8924 29.2930 0001688 86.3374 273.7947 13.11417680210154
Epoch: 6. Mai 2026 •
Age: 8 hours
Aktueller Status
Höhe 1225.7 km
Geschwindigkeit 7.25 km/s
Subsatellitenpunkt 54.27°N,
47.37°W
Startdatum 27. Dez. 2021
Alter 4.3 years
Typ internet
Startgruppe
Unknown Vehicle •
OneWeb Launch 12 •
36 satellites
OneWeb SL0389
50469
OneWeb SL0390 50470
OneWeb SL0391 50471
OneWeb SL0392 50472
OneWeb SL0393 50473
OneWeb SL0394 50474
OneWeb SL0395 50475
OneWeb SL0396 50476
OneWeb SL0397 50477
OneWeb SL0398 50478
OneWeb SL0399 50479
OneWeb SL0400 50480
OneWeb SL0401 50481
OneWeb SL0402 50482
OneWeb SL0403 50483
OneWeb SL0404 50484
OneWeb SL0405 50485
OneWeb SL0406 50486
OneWeb SL0407 50487
OneWeb SL0412 50489
...and 15 more
Technische Details
Klassifizierung Payload
Masse 148.00 kg
Trockenmasse 140.00 kg
Gesamtmasse 148.00 kg
Länge 1.30 m
Durchmesser 1.00 m
Spannweite 5.00 m
Form Trapezoid+2 pan
Hersteller ONEWUS
Bus-Typ ARROW
Phasenstatus In Orbit
Besitzer/Staat ONEWEBN/UK
Most Searched
Loading...